COSMOS 2251 DEB, 35031

Orbit data source: Space-Track

COSMOS 2251 DEB, 35031 is space debris in LEO originally from a launch on Wed, 16 Jun 1993 UTC launched from the Plesetsk Missile And Space Complex (PKMTR). The debris from Iridium 33, an American commercial communications satellite, has been tracked extensively since its accidental collision with the defunct Russian satellite Cosmos 2251 in 2009. This event, occurring at high speed in low Earth orbit (LEO), generated thousands of pieces of space debris, significantly increasing the risk of further collisions. The Iridium 33 debris cloud has impacted space traffic management and orbital debris mitigation strategies, making it a subject of ongoing study in space situational awareness.

Loading next visibility...
Identifier
35031, 1993-036AGU
Orbit
LEO
Country
Flag of CISCIS
Related business
Manufacturer
Unknown
Mission
Spacecraft
Bus & Motor
Unknown
Mass
Unknown
Launch date (UTC)
1993-06-16 (33 years ago)
Launch vehicle
Unknown
Launch site
Plesetsk Missile And Space Complex (PKMTR)
Object type
Payload
Rocket body
Debris
Shape & HBR
Unknown shape, 0.1 m
Radar Cross Section
Small (<0.1 m²)

Expand to show TLE details & history
Last TLE update: 1 day ago

TLE from 1 day ago
0 COSMOS 2251 DEB
1 35031U 93036AGU 26119.35188066  .00000409  00000-0  14218-3 0  9991
2 35031  74.0402   5.6983 0017993  69.3967 290.9115 14.38450315672625
Epoch: 2026-04-29T08:26Z
TLE epoch observation values (Epoch: 2026-04-29T08:26:42.489Z)
Latitude
Longitude
21.70718°
Altitude
761.67 km
Speed
7.476 km/s
True Right ascension
00h 22m 47s
True Declination
0° 00' 00"
Sunlit
Object was in daylight at epoch
Visualization orbit readout
Latitude
Unknown
Longitude
Unknown
Altitude
Unknown
Speed
Unknown
Apparent Right ascension
Unknown
Apparent Declination
Unknown
Sunlit
N/A
Visualization observer readout
Local Sidereal Time
23:16:41
Azimuth
Unknown
Elevation
Unknown
Doppler factor
Unknown
Orbital elements
Apogee altitude
774.09 km
Perigee altitude
748.398 km
Semi-major axis
7,139.381 km
Eccentricity
0.0018
Inclination
74.0402°
RAAN
5.6983°
Arg. of periapsis
69.3967°
True anomaly
290.71874°
Mean anomaly
290.9115°
Eccentric anomaly
290.81514°
Mean motion
3.59793 °/min
Orbital period
100.06 mins
BSTAR
0.00014218

Documentation

Showing up to 5 results
|